JES3172 SAZN-SAEZ

Flight info

Callsign JES3172
Flight time 1h 15m
Altitude 37000
Route NIDBA3C NIDBA DCT ISMIL UT655 ASADA ASADA7X
Aircraft A320/M-SDE3FGHIRWY/LB1

Departure

Time 2026-04-25 20:56
Airport Presidente Perón International Airport (SAZN)

Arrival

Time 2026-04-25 22:12
Airport Ezeiza International Airport - Ministro Pistarini (SAEZ)
Time Latitude Longitude Altitude Speed Heading
2026-04-25 20:39 -38.95152 -68.14023 904 ft 0 kts 179°
2026-04-25 20:50 -38.95144 -68.14024 904 ft 2 kts 179°
2026-04-25 20:50 -38.95131 -68.14024 904 ft 2 kts 180°
2026-04-25 20:51 -38.95117 -68.14024 907 ft 2 kts 177°
2026-04-25 20:51 -38.95108 -68.14024 907 ft 1 kts 163°
2026-04-25 20:51 -38.95102 -68.14026 907 ft 1 kts 133°
2026-04-25 20:51 -38.95097 -68.14031 904 ft 1 kts 100°
2026-04-25 20:52 -38.95096 -68.14038 904 ft 1 kts 90°
2026-04-25 20:52 -38.95096 -68.14042 904 ft 1 kts 88°
2026-04-25 20:52 -38.95096 -68.14050 904 ft 0 kts 87°
2026-04-25 20:53 -38.95095 -68.14018 904 ft 7 kts 87°
2026-04-25 20:53 -38.95065 -68.13976 904 ft 8 kts
2026-04-25 20:54 -38.95034 -68.13997 904 ft 5 kts 319°
2026-04-25 20:54 -38.95028 -68.14005 904 ft 0 kts 316°
2026-04-25 20:54 -38.95021 -68.14014 904 ft 5 kts 315°
2026-04-25 20:55 -38.94985 -68.14060 904 ft 8 kts 315°
2026-04-25 20:55 -38.94939 -68.14117 906 ft 10 kts 313°
2026-04-25 20:55 -38.94902 -68.14442 905 ft 75 kts 267°
2026-04-25 20:55 -38.94901 -68.15379 904 ft 133 kts 270°
2026-04-25 20:56 -38.94902 -68.16718 1258 ft 150 kts 270°
2026-04-25 20:56 -38.94898 -68.18024 2087 ft 144 kts 269°
2026-04-25 20:56 -38.94892 -68.19316 2771 ft 147 kts 270°
2026-04-25 20:56 -38.94885 -68.20714 3134 ft 167 kts 271°
2026-04-25 20:57 -38.94878 -68.22286 3488 ft 190 kts 270°
2026-04-25 20:57 -38.94871 -68.24081 3901 ft 209 kts 269°
2026-04-25 20:57 -38.94863 -68.26003 4646 ft 216 kts 269°
2026-04-25 20:57 -38.94854 -68.27915 5745 ft 212 kts 269°
2026-04-25 20:58 -38.94800 -68.29812 6720 ft 219 kts 277°
2026-04-25 20:58 -38.94106 -68.31686 7254 ft 249 kts 304°
2026-04-25 20:58 -38.92658 -68.32996 8073 ft 274 kts 334°
2026-04-25 20:58 -38.90676 -68.33109 8986 ft 301 kts
2026-04-25 20:59 -38.88769 -68.31814 9874 ft 324 kts 38°
2026-04-25 20:59 -38.87393 -68.29413 10410 ft 348 kts 62°
2026-04-25 20:59 -38.86474 -68.26429 10808 ft 368 kts 72°
2026-04-25 20:59 -38.85776 -68.23227 11508 ft 376 kts 75°
2026-04-25 21:00 -38.85080 -68.19958 12282 ft 381 kts 74°
2026-04-25 21:00 -38.84837 -68.18903 12532 ft 382 kts 73°
2026-04-25 21:00 -38.82362 -68.10267 14540 ft 392 kts 66°
2026-04-25 21:01 -38.81273 -68.07036 15232 ft 396 kts 66°
2026-04-25 21:01 -38.80151 -68.03785 15918 ft 399 kts 65°
2026-04-25 21:01 -38.79024 -68.00511 16580 ft 403 kts 66°
2026-04-25 21:01 -38.77897 -67.97193 17252 ft 407 kts 66°
2026-04-25 21:02 -38.76775 -67.93838 17933 ft 411 kts 66°
2026-04-25 21:02 -38.75655 -67.90452 18572 ft 415 kts 67°
2026-04-25 21:02 -38.74538 -67.87063 19142 ft 420 kts 67°
2026-04-25 21:02 -38.73399 -67.83605 19715 ft 424 kts 67°
2026-04-25 21:03 -38.72240 -67.80093 20291 ft 429 kts 66°
2026-04-25 21:03 -38.71065 -67.76554 20843 ft 433 kts 66°
2026-04-25 21:03 -38.69867 -67.72966 21376 ft 438 kts 66°
2026-04-25 21:03 -38.68681 -67.69414 21895 ft 442 kts 66°
2026-04-25 21:04 -38.67466 -67.65772 22393 ft 447 kts 66°
2026-04-25 21:04 -38.66237 -67.62086 22909 ft 451 kts 66°
2026-04-25 21:04 -38.64993 -67.58379 23442 ft 455 kts 65°
2026-04-25 21:04 -38.63657 -67.54693 23892 ft 459 kts 63°
2026-04-25 21:05 -38.62215 -67.51034 24352 ft 462 kts 62°
2026-04-25 21:05 -38.60707 -67.47387 24810 ft 464 kts 60°
2026-04-25 21:05 -38.59169 -67.43734 25271 ft 467 kts 60°
2026-04-25 21:05 -38.57649 -67.40102 25725 ft 470 kts 61°
2026-04-25 21:06 -38.56114 -67.36374 26182 ft 473 kts 61°
2026-04-25 21:06 -38.54599 -67.32636 26631 ft 476 kts 62°
2026-04-25 21:06 -38.53085 -67.28860 27081 ft 479 kts 62°
2026-04-25 21:06 -38.52574 -67.27581 27236 ft 479 kts 62°
2026-04-25 21:07 -38.50034 -67.21243 27940 ft 484 kts 62°
2026-04-25 21:07 -38.48487 -67.17405 28378 ft 487 kts 62°
2026-04-25 21:07 -38.46949 -67.13603 28777 ft 490 kts 62°
2026-04-25 21:07 -38.45377 -67.09735 29197 ft 492 kts 62°
2026-04-25 21:08 -38.43789 -67.05840 29616 ft 495 kts 61°
2026-04-25 21:08 -38.42193 -67.01931 30034 ft 498 kts 61°
2026-04-25 21:08 -38.40585 -66.97997 30403 ft 501 kts 61°
2026-04-25 21:08 -38.38970 -66.94040 30774 ft 504 kts 62°
2026-04-25 21:09 -38.35713 -66.86058 31512 ft 509 kts 61°
2026-04-25 21:09 -38.34096 -66.82105 31929 ft 510 kts 61°
2026-04-25 21:09 -38.32454 -66.78098 32460 ft 508 kts 61°
2026-04-25 21:10 -38.30818 -66.74112 32984 ft 507 kts 61°
2026-04-25 21:10 -38.29180 -66.70130 33511 ft 506 kts 60°
2026-04-25 21:10 -38.27539 -66.66153 34017 ft 506 kts 60°
2026-04-25 21:10 -38.25921 -66.62238 34407 ft 506 kts 60°
2026-04-25 21:11 -38.24285 -66.58271 34756 ft 507 kts 60°
2026-04-25 21:11 -38.22644 -66.54288 35089 ft 508 kts 60°
2026-04-25 21:11 -38.20997 -66.50298 35425 ft 509 kts 60°
2026-04-25 21:11 -38.19350 -66.46315 35745 ft 510 kts 60°
2026-04-25 21:12 -38.17691 -66.42317 36067 ft 511 kts 60°
2026-04-25 21:12 -38.16027 -66.38319 36389 ft 512 kts 60°
2026-04-25 21:12 -38.14358 -66.34316 36697 ft 513 kts 59°
2026-04-25 21:12 -38.13814 -66.33012 36802 ft 513 kts 59°
2026-04-25 21:13 -38.11028 -66.26342 36978 ft 513 kts 59°
2026-04-25 21:13 -38.09354 -66.22336 36974 ft 512 kts 59°
2026-04-25 21:13 -38.06579 -66.15693 36973 ft 512 kts 59°
2026-04-25 21:14 -38.02695 -66.06408 36972 ft 512 kts 59°
2026-04-25 21:14 -37.99896 -65.99727 36977 ft 511 kts 59°
2026-04-25 21:15 -37.96564 -65.91821 36980 ft 511 kts 59°
2026-04-25 21:15 -37.93198 -65.83875 36983 ft 511 kts 59°
2026-04-25 21:16 -37.89832 -65.75925 36987 ft 511 kts 59°
2026-04-25 21:16 -37.86470 -65.67988 36989 ft 511 kts 59°
2026-04-25 21:17 -37.83116 -65.60114 36989 ft 511 kts 59°
2026-04-25 21:17 -37.79745 -65.52207 36990 ft 511 kts 59°
2026-04-25 21:18 -37.76362 -65.44296 36989 ft 511 kts 59°
2026-04-25 21:18 -37.72993 -65.36436 36990 ft 511 kts 59°
2026-04-25 21:19 -37.69604 -65.28553 36988 ft 511 kts 59°
2026-04-25 21:19 -37.66210 -65.20671 36991 ft 511 kts 58°
2026-04-25 21:20 -37.63384 -65.14135 36992 ft 510 kts 58°
2026-04-25 21:20 -37.59403 -65.04944 36995 ft 510 kts 58°
2026-04-25 21:21 -37.55998 -64.97093 36995 ft 510 kts 58°
2026-04-25 21:21 -37.52590 -64.89246 36996 ft 510 kts 58°
2026-04-25 21:22 -37.49174 -64.81406 36997 ft 510 kts 58°
2026-04-25 21:22 -37.45772 -64.73636 36994 ft 510 kts 58°
2026-04-25 21:23 -37.42339 -64.65807 36998 ft 510 kts 58°
2026-04-25 21:23 -37.38907 -64.57993 36993 ft 510 kts 58°
2026-04-25 21:24 -37.35487 -64.50224 36990 ft 510 kts 58°
2026-04-25 21:24 -37.32044 -64.42424 36997 ft 510 kts 58°
2026-04-25 21:25 -37.28604 -64.34647 36991 ft 509 kts 58°
2026-04-25 21:25 -37.25154 -64.26857 37003 ft 509 kts 57°
2026-04-25 21:26 -37.21694 -64.19084 36994 ft 509 kts 57°
2026-04-25 21:26 -37.18253 -64.11372 36995 ft 509 kts 57°
2026-04-25 21:27 -37.14794 -64.03628 36987 ft 509 kts 57°
2026-04-25 21:27 -37.11325 -63.95885 36991 ft 509 kts 57°
2026-04-25 21:28 -37.07857 -63.88157 36993 ft 508 kts 57°
2026-04-25 21:28 -37.04390 -63.80441 36996 ft 508 kts 57°
2026-04-25 21:29 -37.00917 -63.72717 36997 ft 508 kts 57°
2026-04-25 21:29 -36.97465 -63.65077 36996 ft 507 kts 57°
2026-04-25 21:30 -36.93978 -63.57403 36994 ft 507 kts 56°
2026-04-25 21:30 -36.91085 -63.51039 36991 ft 507 kts 57°
2026-04-25 21:31 -36.87023 -63.42080 36989 ft 506 kts 56°
2026-04-25 21:31 -36.83533 -63.34443 36991 ft 506 kts 56°
2026-04-25 21:32 -36.80059 -63.26863 36993 ft 505 kts 56°
2026-04-25 21:32 -36.76565 -63.19233 36990 ft 505 kts 56°
2026-04-25 21:33 -36.73075 -63.11632 36990 ft 505 kts 56°
2026-04-25 21:33 -36.69594 -63.04077 36985 ft 504 kts 56°
2026-04-25 21:34 -36.66092 -62.96486 36986 ft 504 kts 56°
2026-04-25 21:34 -36.62590 -62.88917 36983 ft 504 kts 55°
2026-04-25 21:35 -36.59102 -62.81384 36998 ft 504 kts 55°
2026-04-25 21:35 -36.55585 -62.73813 36982 ft 504 kts 55°
2026-04-25 21:36 -36.52071 -62.66266 36984 ft 504 kts 55°
2026-04-25 21:36 -36.48567 -62.58757 36985 ft 504 kts 55°
2026-04-25 21:37 -36.45629 -62.52473 36977 ft 505 kts 55°
2026-04-25 21:37 -36.41498 -62.43661 36978 ft 505 kts 55°
2026-04-25 21:38 -36.37953 -62.36111 36977 ft 506 kts 54°
2026-04-25 21:38 -36.34430 -62.28621 36972 ft 506 kts 54°
2026-04-25 21:39 -36.30868 -62.21078 36969 ft 507 kts 54°
2026-04-25 21:39 -36.27293 -62.13537 36967 ft 507 kts 54°
2026-04-25 21:40 -36.23719 -62.06002 36968 ft 508 kts 54°
2026-04-25 21:40 -36.20131 -61.98445 36970 ft 509 kts 54°
2026-04-25 21:41 -36.16532 -61.90885 36972 ft 509 kts 54°
2026-04-25 21:41 -36.12952 -61.83383 36973 ft 509 kts 54°
2026-04-25 21:42 -36.09335 -61.75837 36975 ft 510 kts 54°
2026-04-25 21:42 -36.05717 -61.68293 36976 ft 510 kts 54°
2026-04-25 21:43 -36.02095 -61.60747 36976 ft 510 kts 54°
2026-04-25 21:43 -35.98482 -61.53245 36981 ft 511 kts 54°
2026-04-25 21:44 -35.94847 -61.45697 36981 ft 511 kts 54°
2026-04-25 21:45 -35.89377 -61.34390 36985 ft 511 kts 53°
2026-04-25 21:45 -35.85849 -61.26800 36985 ft 513 kts 56°
2026-04-25 21:46 -35.82437 -61.19053 36987 ft 514 kts 56°
2026-04-25 21:46 -35.79029 -61.11285 36989 ft 514 kts 56°
2026-04-25 21:47 -35.75560 -61.03562 36990 ft 514 kts 55°
2026-04-25 21:47 -35.72063 -60.95886 36989 ft 514 kts 55°
2026-04-25 21:48 -35.68569 -60.88197 36358 ft 520 kts 56°
2026-04-25 21:48 -35.66811 -60.84314 35839 ft 518 kts 56°
2026-04-25 21:48 -35.65059 -60.80439 35281 ft 517 kts 56°
2026-04-25 21:48 -35.63312 -60.76577 34744 ft 516 kts 56°
2026-04-25 21:49 -35.61565 -60.72725 34170 ft 515 kts 56°
2026-04-25 21:49 -35.59816 -60.68871 33558 ft 514 kts 56°
2026-04-25 21:49 -35.58083 -60.65059 33133 ft 507 kts 56°
2026-04-25 21:49 -35.56370 -60.61301 32559 ft 501 kts 56°
2026-04-25 21:50 -35.54703 -60.57652 32048 ft 492 kts 56°
2026-04-25 21:50 -35.53014 -60.53962 31361 ft 484 kts 57°
2026-04-25 21:50 -35.51401 -60.50441 30788 ft 475 kts 57°
2026-04-25 21:50 -35.50312 -60.48068 30472 ft 467 kts 57°
2026-04-25 21:51 -35.48225 -60.43526 29779 ft 456 kts 57°
2026-04-25 21:51 -35.46670 -60.40152 29307 ft 452 kts 57°
2026-04-25 21:51 -35.45134 -60.36816 28849 ft 447 kts 57°
2026-04-25 21:51 -35.43610 -60.33507 28396 ft 443 kts 57°
2026-04-25 21:52 -35.42102 -60.30231 27951 ft 439 kts 57°
2026-04-25 21:52 -35.40606 -60.26984 27510 ft 436 kts 57°
2026-04-25 21:52 -35.39117 -60.23759 27058 ft 433 kts 57°
2026-04-25 21:52 -35.37633 -60.20556 26604 ft 431 kts 57°
2026-04-25 21:53 -35.36177 -60.17410 26139 ft 429 kts 57°
2026-04-25 21:53 -35.34707 -60.14233 25670 ft 428 kts 57°
2026-04-25 21:53 -35.33243 -60.11065 25178 ft 427 kts 57°
2026-04-25 21:53 -35.31778 -60.07905 24692 ft 426 kts 57°
2026-04-25 21:54 -35.30317 -60.04756 24230 ft 424 kts 57°
2026-04-25 21:54 -35.28863 -60.01627 23743 ft 422 kts 57°
2026-04-25 21:54 -35.27430 -59.98543 23172 ft 412 kts 57°
2026-04-25 21:54 -35.26033 -59.95538 22642 ft 397 kts 57°
2026-04-25 21:55 -35.24689 -59.92648 22185 ft 385 kts 57°
2026-04-25 21:55 -35.23393 -59.89864 21735 ft 379 kts 57°
2026-04-25 21:55 -35.22083 -59.87062 21272 ft 378 kts 57°
2026-04-25 21:55 -35.20774 -59.84272 20817 ft 378 kts 57°
2026-04-25 21:56 -35.19467 -59.81481 20360 ft 377 kts 57°
2026-04-25 21:56 -35.18606 -59.79637 20053 ft 377 kts 57°
2026-04-25 21:56 -35.16882 -59.75936 19442 ft 377 kts 57°
2026-04-25 21:56 -35.15584 -59.73154 18984 ft 377 kts 56°
2026-04-25 21:57 -35.14278 -59.70363 18520 ft 377 kts 56°
2026-04-25 21:57 -35.12972 -59.67580 18033 ft 377 kts 56°
2026-04-25 21:57 -35.11667 -59.64811 17552 ft 375 kts 56°
2026-04-25 21:57 -35.10367 -59.62052 17097 ft 373 kts 56°
2026-04-25 21:58 -35.09090 -59.59339 16645 ft 372 kts 56°
2026-04-25 21:58 -35.07805 -59.56601 16183 ft 370 kts 56°
2026-04-25 21:58 -35.06525 -59.53871 15741 ft 369 kts 56°
2026-04-25 21:58 -35.05248 -59.51158 15297 ft 367 kts 56°
2026-04-25 21:59 -35.03974 -59.48462 14845 ft 366 kts 56°
2026-04-25 21:59 -35.02701 -59.45773 14401 ft 365 kts 56°
2026-04-25 21:59 -35.01436 -59.43098 14030 ft 361 kts 56°
2026-04-25 22:00 -34.98953 -59.37854 13116 ft 358 kts 56°
2026-04-25 22:00 -34.97720 -59.35250 12689 ft 350 kts 56°
2026-04-25 22:00 -34.96907 -59.33528 12325 ft 343 kts 57°
2026-04-25 22:00 -34.95367 -59.30274 11774 ft 326 kts 57°
2026-04-25 22:01 -34.94250 -59.27922 11373 ft 315 kts 57°
2026-04-25 22:01 -34.93520 -59.26389 11118 ft 316 kts 57°
2026-04-25 22:01 -34.92042 -59.23287 10586 ft 318 kts 57°
2026-04-25 22:01 -34.91680 -59.22527 10460 ft 318 kts 57°
2026-04-25 22:02 -34.90191 -59.19399 9920 ft 320 kts 58°
2026-04-25 22:02 -34.89080 -59.17060 9603 ft 317 kts 58°
2026-04-25 22:02 -34.87977 -59.14739 9184 ft 313 kts 58°
2026-04-25 22:02 -34.86921 -59.12524 8728 ft 310 kts 58°
2026-04-25 22:03 -34.85848 -59.10272 8325 ft 304 kts 58°
2026-04-25 22:03 -34.84793 -59.08064 7938 ft 299 kts 58°
2026-04-25 22:03 -34.83763 -59.05914 7567 ft 294 kts 58°
2026-04-25 22:03 -34.82743 -59.03779 7197 ft 289 kts 58°
2026-04-25 22:04 -34.81735 -59.01672 6835 ft 285 kts 58°
2026-04-25 22:04 -34.80738 -58.99590 6469 ft 285 kts 58°
2026-04-25 22:04 -34.79731 -58.97492 6075 ft 287 kts 58°
2026-04-25 22:04 -34.78721 -58.95390 5741 ft 287 kts 58°
2026-04-25 22:05 -34.77732 -58.93330 5617 ft 278 kts 58°
2026-04-25 22:05 -34.76826 -58.91329 5489 ft 270 kts 66°
2026-04-25 22:05 -34.76371 -58.89164 5363 ft 261 kts 85°
2026-04-25 22:05 -34.76463 -58.86998 5092 ft 253 kts 102°
2026-04-25 22:06 -34.76803 -58.84887 4559 ft 253 kts 102°
2026-04-25 22:06 -34.77144 -58.82794 4063 ft 250 kts 102°
2026-04-25 22:06 -34.77477 -58.80732 3583 ft 247 kts 102°
2026-04-25 22:06 -34.77800 -58.78724 3310 ft 234 kts 101°
2026-04-25 22:07 -34.78098 -58.76869 3173 ft 217 kts 102°
2026-04-25 22:07 -34.78289 -58.75677 3111 ft 209 kts 101°
2026-04-25 22:07 -34.78650 -58.73445 2974 ft 195 kts 102°
2026-04-25 22:07 -34.78928 -58.71862 2739 ft 186 kts 103°
2026-04-25 22:08 -34.79192 -58.70392 2530 ft 167 kts 103°
2026-04-25 22:08 -34.79427 -58.69089 2307 ft 151 kts 103°
2026-04-25 22:08 -34.79644 -58.67887 2109 ft 145 kts 104°
2026-04-25 22:08 -34.79859 -58.66701 1922 ft 142 kts 104°
2026-04-25 22:09 -34.80070 -58.65530 1736 ft 141 kts 104°
2026-04-25 22:09 -34.80280 -58.64361 1536 ft 140 kts 104°
2026-04-25 22:09 -34.80492 -58.63204 1344 ft 140 kts 104°
2026-04-25 22:09 -34.80699 -58.62064 1186 ft 139 kts 104°
2026-04-25 22:10 -34.80901 -58.60912 980 ft 139 kts 104°
2026-04-25 22:10 -34.81109 -58.59774 820 ft 138 kts 105°
2026-04-25 22:10 -34.81323 -58.58641 657 ft 137 kts 103°
2026-04-25 22:10 -34.81516 -58.57501 474 ft 137 kts 104°
2026-04-25 22:11 -34.81724 -58.56376 304 ft 136 kts 103°
2026-04-25 22:11 -34.81922 -58.55248 152 ft 136 kts 103°
2026-04-25 22:11 -34.82117 -58.54156 84 ft 128 kts 104°
2026-04-25 22:11 -34.82274 -58.53284 82 ft 81 kts 102°
2026-04-25 22:12 -34.82343 -58.52859 83 ft 14 kts 78°
2026-04-25 22:12 -34.82324 -58.52857 82 ft 4 kts 332°
2026-04-25 22:12 -34.82246 -58.52902 83 ft 20 kts 341°
2026-04-25 22:12 -34.82149 -58.52935 82 ft 23 kts 344°
2026-04-25 22:13 -34.82014 -58.53077 75 ft 13 kts 284°
2026-04-25 22:13 -34.81997 -58.53162 76 ft 7 kts 283°
2026-04-25 22:13 -34.81992 -58.53186 68 ft 3 kts 283°
2026-04-25 22:13 -34.81984 -58.53229 72 ft 7 kts 282°
2026-04-25 22:14 -34.81971 -58.53295 76 ft 10 kts 283°
2026-04-25 22:14 -34.81953 -58.53392 72 ft 14 kts 284°
2026-04-25 22:14 -34.81925 -58.53520 75 ft 18 kts 285°
2026-04-25 22:14 -34.81869 -58.53646 66 ft 18 kts 323°
2026-04-25 22:15 -34.81753 -58.53716 70 ft 17 kts 334°
2026-04-25 22:15 -34.81701 -58.53830 75 ft 12 kts 268°
2026-04-25 22:15 -34.81669 -58.53905 67 ft 9 kts 315°
2026-04-25 22:16 -34.81595 -58.53990 68 ft 1 kts 322°
2026-04-25 22:16 -34.81595 -58.53991 68 ft 0 kts 322°